Weather History for Scottsdale, AZ

Change the Weather History Date:

Friday, February 28, 2014

  Actual Average Record
Temperature  
Mean Temperature 67 °F -  
Max Temperature 79 °F 65 °F 82 °F (2009)
Min Temperature 55 °F 44 °F 37 °F (2011)
Cooling Degree Days 2    
Growing Degree Days 17 (Base 50)    
Moisture  
Dew Point 41 °F    
Average Humidity 40    
Maximum Humidity 55    
Minimum Humidity 25    
Precipitation  
Precipitation 0.00 in - - ()
Sea Level Pressure  
Sea Level Pressure 29.79 in    
Wind  
Wind Speed 3 mph (South)    
Max Wind Speed 15 mph    
Max Gust Speed 25 mph    
Visibility 10 miles    
Events      
Averages and records for this station are not official NWS values.
T = Trace of Precipitation, MM = Missing Value Source: NWS Daily Summary

Daily Weather History Graph

Daily Weather History Graph

Search for Another Location

Airport:

Trip Planner

Search our weather history database for the weather conditions in past years. The results will help you decide how hot, cold, wet, or windy it might be!

Date:

Astronomy

Feb. 28, 2014 Rise Set
Actual Time 6:57 AM MST 6:23 PM MST
Civil Twilight 6:32 AM MST 6:48 PM MST
Nautical Twilight 6:03 AM MST 7:17 PM MST
Astronomical Twilight 5:34 AM MST 7:46 PM MST
Moon 6:13 AM MST (2/28) 6:03 PM MST (2/28)
Length of Visible Light 12h 16m
Length of Day
11h 26m
Waning Crescent, 0% of the Moon is Illuminated
Feb 28
Waning Crescent
Mar 1
New
Mar 8
First Quarter
Mar 16
Full
Mar 23
Last Quarter

Hourly Weather History & Observations

Time (MST) Temp. Dew Point Humidity Pressure Visibility Wind Dir Wind Speed Gust Speed Precip Events Conditions
12:53 AM 61.0 °F 39.0 °F 44% 29.82 in 10.0 mi Calm Calm - N/A   Clear
1:53 AM 59.0 °F 39.9 °F 49% 29.82 in 10.0 mi Calm Calm - N/A   Clear
2:53 AM 55.9 °F 39.9 °F 55% 29.82 in 10.0 mi South 3.5 mph - N/A   Clear
3:53 AM 57.9 °F 39.0 °F 49% 29.81 in 10.0 mi Calm Calm - N/A   Clear
4:53 AM 55.9 °F 39.9 °F 55% 29.82 in 10.0 mi Calm Calm - N/A   Clear
5:53 AM 55.9 °F 39.9 °F 55% 29.83 in 10.0 mi Calm Calm - N/A   Clear
6:53 AM 55.9 °F 39.9 °F 55% 29.82 in 10.0 mi Calm Calm - N/A   Clear
7:53 AM 57.0 °F 39.9 °F 53% 29.84 in 10.0 mi Calm Calm - N/A   Clear
8:53 AM 62.1 °F 41.0 °F 46% 29.85 in 10.0 mi Calm Calm - N/A   Clear
9:53 AM 68.0 °F 39.0 °F 35% 29.85 in 10.0 mi SE 6.9 mph - N/A   Clear
10:53 AM 71.1 °F 39.9 °F 32% 29.85 in 10.0 mi SE 5.8 mph - N/A   Partly Cloudy
11:53 AM 72.0 °F 39.9 °F 31% 29.85 in 10.0 mi SSW 5.8 mph - N/A   Overcast
12:53 PM 73.9 °F 37.9 °F 27% 29.82 in 10.0 mi South 4.6 mph - N/A   Clear
1:53 PM 73.9 °F 37.0 °F 26% 29.79 in 10.0 mi SSW 3.5 mph - N/A   Scattered Clouds
2:53 PM 77.0 °F 39.0 °F 25% 29.76 in 10.0 mi SE 6.9 mph - N/A   Partly Cloudy
3:53 PM 79.0 °F 39.9 °F 25% 29.73 in 10.0 mi South 9.2 mph - N/A   Clear
4:53 PM 79.0 °F 39.9 °F 25% 29.71 in 10.0 mi South 8.1 mph - N/A   Scattered Clouds
5:53 PM 78.1 °F 39.9 °F 25% 29.69 in 10.0 mi SSE 3.5 mph - N/A   Scattered Clouds
6:53 PM 77.0 °F 43.0 °F 30% 29.71 in 10.0 mi South 15.0 mph 21.9 mph N/A   Overcast
7:53 PM 75.0 °F 46.9 °F 37% 29.72 in 10.0 mi Variable 5.8 mph - N/A   Overcast
8:53 PM 73.0 °F 46.0 °F 38% 29.72 in 10.0 mi South 12.7 mph 25.3 mph N/A   Overcast
9:53 PM 71.1 °F 46.9 °F 42% 29.75 in 10.0 mi SSE 6.9 mph - N/A   Mostly Cloudy
10:53 PM 70.0 °F 48.0 °F 46% 29.76 in 10.0 mi South 8.1 mph - N/A   Overcast
11:53 PM 69.1 °F 48.9 °F 49% 29.74 in 10.0 mi SSE 5.8 mph - N/A   Overcast